[[{"header":{"parameterUnit":"m.s-1","parameterCategory":1,"la1":30.2991,"la2":30.254,"lo1":-89.0895,"lo2":-89.0444,"dy":0.0017,"dx":0.0017,"nx":28,"ny":28,"refTime":"2023-09-16T09:00:00:Z","depth":0,"parameterNumber":2,"parameterNumberName":"U-component_of_WINDS"},"data":[0,0,0,0,0,0,0,0,0,0,0,0,0,0,0,0,0,0,0,0,0,0,0,0,0,0,0,0,0,0,0,0,0,0,0,0,0,0,0,0,0,0,0,0,0,0,0,0,0,0,0,0,0,0,0,0,0,0,-2.2323,-2.2324,0,-2.2401,-2.2402,-2.2403,-2.2303,-2.2299,-2.2296,-2.2292,-2.2374,-2.2379,-2.2385,0,0,0,0,0,0,0,0,0,0,0,0,0,-2.209,-2.2095,-2.2323,-2.2324,-2.2325,-2.2401,-2.2402,-2.2403,-2.2304,-2.2299,-2.2295,-2.2291,-2.2372,-2.2379,-2.2385,0,0,0,0,0,0,0,0,0,0,0,0,0,-2.2182,-2.2097,-2.2323,-2.2285,-2.2282,-2.24,-2.2402,-2.2403,-2.2304,-2.2299,-2.2294,-2.2288,-2.237,-2.2378,-2.2386,-2.2547,0,0,-2.2412,-2.2415,0,0,0,0,0,0,0,0,-2.2177,-2.2191,-2.2289,-2.2288,-2.2285,-2.2336,-2.2349,-2.2451,-2.2306,-2.2296,-2.2292,-2.2286,-2.2366,-2.2374,-2.2401,-2.2551,-2.2554,-2.2413,-2.2418,-2.2421,-2.2424,0,0,0,0,0,0,0,-2.2171,-2.2187,-2.2354,-2.2291,-2.2288,-2.2264,-2.2271,-2.2368,-2.2361,-2.2296,-2.2289,-2.23,-2.2364,-2.2393,-2.2402,-2.2555,-2.2412,-2.242,-2.2425,-2.2428,-2.284,-2.2846,0,0,0,0,0,0,-2.2169,-2.2182,-2.2351,-2.2356,-2.2216,-2.2273,-2.228,-2.2325,-2.2359,-2.2359,-2.2304,-2.2295,-2.2382,-2.2393,-2.2405,-2.2595,-2.2421,-2.2429,-2.2434,-2.2835,-2.2842,-2.2848,0,0,0,0,0,0,-2.2164,-2.2185,-2.2348,-2.2267,-2.2286,-2.2282,-2.2334,-2.233,-2.2359,-2.2365,-2.2364,-2.2336,-2.2378,-2.2393,-2.2512,-2.2597,-2.2433,-2.244,-2.2827,-2.2837,-2.2845,-2.2978,0,0,0,0,0,0,-2.2158,-2.2184,-2.2245,-2.2269,-2.2291,-2.2455,-2.2339,-2.2335,-2.2374,-2.2362,-2.2394,-2.2395,-2.2375,-2.25,-2.252,-2.2605,-2.2447,-2.282,-2.2832,-2.2842,-2.2966,-2.2991,-2.3011,0,0,0,0,0,-2.215,-2.228,-2.2248,-2.2269,-2.2367,-2.246,-2.2472,-2.2446,-2.2381,-2.2442,-2.2446,-2.2394,-2.2584,-2.2513,-2.2535,-2.2624,-2.2815,-2.2828,-2.2841,-2.2956,-2.2986,-2.3011,0,0,0,0,0,0,-2.2266,-2.2282,-2.2248,-2.2389,-2.2424,-2.2443,-2.252,-2.2478,-2.2533,-2.252,-2.2485,-2.2493,-2.2621,-2.2633,-2.2555,-2.2781,-2.2688,-2.2707,-2.2768,-2.2797,-2.2819,-2.2814,-2.2454,0,0,0,0,0,-2.2308,-2.2381,-2.2391,-2.2515,-2.2534,-2.2524,-2.2564,-2.254,-2.2575,-2.2589,-2.2602,-2.2638,-2.2706,-2.2751,-2.2814,-2.2966,-2.2973,-2.3038,-2.3061,-2.3079,-2.3097,-2.3179,-2.3208,-2.2892,-2.2892,-2.2892,0,0,-2.2396,-2.2413,-2.2462,-2.2539,-2.2563,-2.2641,-2.2537,-2.2624,-2.2681,-2.2602,-2.2716,-2.2726,-2.2764,-2.2901,-2.2962,-2.2916,-2.3185,-2.3096,-2.3111,-2.3118,-2.3196,-2.3226,-2.3252,-2.2901,-2.2899,-2.2898,0,0,-2.2596,-2.2616,-2.2722,-2.2747,-2.2785,-2.2777,-2.2802,-2.2827,-2.2831,-2.2944,-2.2886,-2.2954,-2.3071,-2.3101,-2.3131,-2.334,-2.3295,-2.3362,-2.3481,-2.3561,-2.3586,-2.3608,-2.3684,-2.3712,-2.3378,-2.3378,-2.3379,0,-2.2701,-2.2815,-2.2782,-2.2872,-2.2908,-2.2838,-2.2946,-2.2972,-2.3029,-2.3055,-2.3002,-2.3148,-2.3168,-2.3311,-2.3362,-2.3389,-2.3417,-2.3359,-2.3585,-2.3607,-2.3627,-2.3699,-2.3727,-2.3386,-2.3386,-2.3385,-2.3384,0,-2.2942,-2.3022,-2.3103,-2.3158,-2.3203,-2.3301,-2.3283,-2.3332,-2.3304,-2.3302,-2.3418,-2.3439,-2.3506,-2.3537,-2.3511,-2.3677,-2.3647,-2.359,-2.3497,-2.3666,-2.3733,-2.376,-2.3398,-2.3395,-2.3393,-2.3391,0,0,-2.3221,-2.3255,-2.3286,-2.331,-2.3345,-2.3406,-2.3501,-2.3564,-2.3608,-2.3648,-2.3727,-2.3827,-2.3774,-2.3809,-2.3785,-2.3856,-2.4021,-2.379,-2.379,-2.3834,-2.4206,-2.4251,-2.4283,-2.399,-2.3995,-2.3999,-2.4204,0,-2.3422,-2.3586,-2.3558,-2.3718,-2.3792,-2.3726,-2.3808,-2.3839,-2.3839,-2.3901,-2.3901,-2.3973,-2.3897,-2.3918,-2.3984,-2.3987,-2.4096,-2.3972,-2.4065,-2.4069,-2.406,-2.4318,-2.4366,-2.4558,-2.423,-2.4234,-2.4237,0,-2.368,-2.3729,-2.3896,-2.3919,-2.3949,-2.4024,-2.4079,-2.4139,-2.4173,-2.4167,-2.4205,-2.4168,-2.4263,-2.4166,-2.4297,-2.4213,-2.4248,-2.4256,-2.4262,-2.4272,-2.4165,-2.4337,-2.4618,-2.4648,-2.4278,-2.4275,-2.4272,0,-2.3869,-2.3976,-2.409,-2.4112,-2.4141,-2.4196,-2.421,-2.4238,-2.4278,-2.4326,-2.4352,-2.4411,-2.4444,-2.4491,-2.447,-2.4401,-2.4605,-2.4507,-2.4605,-2.4606,-2.4653,-2.4651,-2.4947,-2.4673,-2.4672,-2.4672,-2.4671,0,-2.4098,-2.4204,-2.4175,-2.4246,-2.4361,-2.4327,-2.4443,-2.4449,-2.4474,-2.4545,-2.4491,-2.4558,-2.4526,-2.4591,-2.4576,-2.4687,-2.4702,-2.4701,-2.4696,-2.4708,-2.4708,-2.4733,-2.472,-2.4679,-2.4678,-2.4676,-2.4675,0,-2.433,-2.4315,-2.4435,-2.4452,-2.4458,-2.4543,-2.4558,-2.4624,-2.4618,-2.4708,-2.4727,-2.4719,-2.4793,-2.4776,-2.4858,-2.4847,-2.4988,-2.4965,-2.4977,-2.4972,-2.5072,-2.5064,-2.5396,-2.5439,-2.5135,-2.5138,-2.514,0,-2.4479,-2.4558,-2.4583,-2.4626,-2.4645,-2.4715,-2.4755,-2.4724,-2.4768,-2.481,-2.4872,-2.494,-2.4994,-2.5115,-2.5117,-2.5178,-2.5158,-2.527,-2.5167,-2.5176,-2.5162,-2.5159,-2.5167,-2.5292,-2.5295,-2.5298,-2.53,0,-2.4745,-2.4734,-2.4793,-2.485,-2.4899,-2.4943,-2.4981,-2.5019,-2.4991,-2.5043,-2.5118,-2.5159,-2.5241,-2.5311,-2.5367,-2.5382,-2.5338,-2.5332,-2.5358,-2.5372,-2.5377,-2.5378,-2.5035,-2.5325,-2.5323,-2.5321,-2.532,-2.5319,-2.4942,-2.5009,-2.5037,-2.5105,-2.513,-2.5167,-2.523,-2.5231,-2.5292,-2.5357,-2.5334,-2.542,-2.5449,-2.5521,-2.5542,-2.5609,-2.5567,-2.5605,-2.5615,-2.5625,-2.5638,-2.5364,-2.5619,-2.5618,-2.5617,-2.5617,-2.5616,0,-2.5207,-2.5221,-2.5284,-2.5339,-2.5392,-2.5343,-2.5382,-2.5431,-2.5506,-2.5537,-2.5591,-2.5676,-2.5743,-2.5749,-2.5811,-2.5863,-2.5845,-2.5881,-2.5879,-2.5883,-2.5672,-2.5643,-2.5896,-2.5895,-2.5895,-2.5895,-2.5895,-2.5895,-2.5351,-2.5463,-2.5455,-2.5578,-2.5591,-2.5674,-2.5701,-2.5735,-2.5759,-2.5857,-2.5912,-2.5914,-2.5936,-2.5999,-2.6058,-2.6058,-2.6084,-2.613,-2.6122,-2.5925,-2.5898,-2.5871,-2.5845,-2.6135,-2.6135,-2.6328,-2.633,-2.6331]},{"header":{"parameterUnit":"m.s-1","parameterCategory":1,"la1":30.2991,"la2":30.254,"lo1":-89.0895,"lo2":-89.0444,"dy":0.0017,"dx":0.0017,"nx":28,"ny":28,"refTime":"2023-09-16T09:00:00:Z","depth":0,"parameterNumber":3,"parameterNumberName":"V-component_of_WINDS"},"data":[0,0,0,0,0,0,0,0,0,0,0,0,0,0,0,0,0,0,0,0,0,0,0,0,0,0,0,0,0,0,0,0,0,0,0,0,0,0,0,0,0,0,0,0,0,0,0,0,0,0,0,0,0,0,0,0,0,0,-3.966,-3.9661,0,-3.9728,-3.9729,-3.973,-3.9648,-3.9645,-3.9642,-3.9639,-3.9707,-3.9711,-3.9716,0,0,0,0,0,0,0,0,0,0,0,0,0,-3.9456,-3.9461,-3.966,-3.9661,-3.9662,-3.9728,-3.9729,-3.973,-3.9649,-3.9645,-3.9641,-3.9638,-3.9705,-3.9711,-3.9716,0,0,0,0,0,0,0,0,0,0,0,0,0,-3.9537,-3.9462,-3.966,-3.9629,-3.9627,-3.9728,-3.9729,-3.973,-3.9649,-3.9645,-3.964,-3.9636,-3.9703,-3.971,-3.9717,-3.985,0,0,-3.9738,-3.9741,0,0,0,0,0,0,0,0,-3.9532,-3.9544,-3.9633,-3.9632,-3.9629,-3.9675,-3.9682,-3.977,-3.9651,-3.9641,-3.9639,-3.9634,-3.97,-3.9707,-3.9729,-3.9853,-3.9856,-3.9739,-3.9743,-3.9746,-3.9748,0,0,0,0,0,0,0,-3.9527,-3.9541,-3.9687,-3.9634,-3.9632,-3.9611,-3.9617,-3.9698,-3.9695,-3.9641,-3.9636,-3.9645,-3.9698,-3.9723,-3.973,-3.9857,-3.9738,-3.9745,-3.9749,-3.9752,-4.0093,-4.0098,0,0,0,0,0,0,-3.9525,-3.9537,-3.9685,-3.9689,-3.9569,-3.9618,-3.9626,-3.9665,-3.9694,-3.9694,-3.9649,-3.9641,-3.9713,-3.9722,-3.9732,-3.989,-3.9746,-3.9752,-3.9756,-4.0088,-4.0094,-4.01,0,0,0,0,0,0,-3.9521,-3.9539,-3.9682,-3.9611,-3.9628,-3.9627,-3.9672,-3.9669,-3.9694,-3.9699,-3.9698,-3.9675,-3.971,-3.9723,-3.9821,-3.9891,-3.9755,-3.9762,-4.0083,-4.009,-4.0097,-4.0207,0,0,0,0,0,0,-3.9516,-3.9538,-3.959,-3.9613,-3.9632,-3.9771,-3.9676,-3.9673,-3.9706,-3.9696,-3.9724,-3.9724,-3.9707,-3.9812,-3.9828,-3.9898,-3.9767,-4.0076,-4.0086,-4.0095,-4.0197,-4.0217,-4.0234,0,0,0,0,0,-3.9509,-3.9617,-3.9593,-3.9611,-3.9697,-3.9776,-3.9786,-3.9766,-3.9712,-3.9763,-3.9767,-3.9723,-3.9881,-3.9822,-3.9841,-3.9914,-4.0072,-4.0083,-4.0094,-4.0189,-4.0213,-4.0234,0,0,0,0,0,0,-3.9601,-3.962,-3.9593,-3.9713,-3.9743,-3.9762,-3.9826,-3.9792,-3.9838,-3.9827,-3.9799,-3.9806,-3.9911,-3.9922,-3.9857,-4.0044,-3.9967,-3.9983,-4.0033,-4.0056,-4.0075,-4.007,-3.9773,0,0,0,0,0,-3.9636,-3.97,-3.9712,-3.9816,-3.9833,-3.9827,-3.9861,-3.9842,-3.9873,-3.9885,-3.9896,-3.9926,-3.9982,-4.002,-4.0072,-4.0198,-4.0202,-4.0257,-4.0276,-4.0291,-4.0304,-4.0371,-4.0396,-4.0136,-4.0136,-4.0136,0,0,-3.9708,-3.9726,-3.9768,-3.9836,-3.9857,-3.9923,-3.9839,-3.9912,-3.996,-3.9896,-3.999,-3.9999,-4.0031,-4.0144,-4.0194,-4.0156,-4.0377,-4.0305,-4.0317,-4.0322,-4.0385,-4.041,-4.0432,-4.0144,-4.0142,-4.0141,0,0,-3.9872,-3.9893,-3.9982,-4.0005,-4.0039,-4.0034,-4.0056,-4.0079,-4.0083,-4.0177,-4.013,-4.0186,-4.0284,-4.0309,-4.0334,-4.0507,-4.0468,-4.0525,-4.0622,-4.0688,-4.0708,-4.0726,-4.0787,-4.081,-4.0538,-4.0538,-4.0539,0,-3.9957,-4.0055,-4.0032,-4.0108,-4.0139,-4.0085,-4.0174,-4.0198,-4.0247,-4.0269,-4.0225,-4.0347,-4.0364,-4.0482,-4.0524,-4.0547,-4.0569,-4.0522,-4.0707,-4.0725,-4.0741,-4.08,-4.0823,-4.0545,-4.0544,-4.0543,-4.0543,0,-4.0157,-4.0226,-4.0293,-4.0343,-4.0381,-4.0464,-4.0452,-4.0494,-4.0472,-4.0471,-4.0567,-4.0586,-4.0641,-4.0668,-4.0647,-4.0783,-4.0758,-4.0712,-4.0634,-4.0773,-4.0827,-4.0849,-4.0554,-4.0552,-4.055,-4.0548,0,0,-4.0383,-4.0418,-4.0443,-4.0465,-4.0498,-4.055,-4.0629,-4.0684,-4.072,-4.0755,-4.082,-4.0904,-4.0861,-4.089,-4.0871,-4.0929,-4.1064,-4.0875,-4.0875,-4.0909,-4.1215,-4.1249,-4.1276,-4.1039,-4.1043,-4.1046,-4.1212,0,-4.0547,-4.0686,-4.0667,-4.08,-4.0863,-4.0812,-4.0881,-4.0908,-4.091,-4.0962,-4.0963,-4.1023,-4.0962,-4.0979,-4.1033,-4.1036,-4.1125,-4.1024,-4.1099,-4.1102,-4.1093,-4.1304,-4.1341,-4.1497,-4.1233,-4.1236,-4.1239,0,-4.0758,-4.0802,-4.0942,-4.0965,-4.099,-4.1053,-4.1101,-4.1152,-4.1181,-4.1178,-4.121,-4.1181,-4.1259,-4.1181,-4.1288,-4.122,-4.1249,-4.1255,-4.126,-4.1267,-4.1179,-4.1316,-4.1546,-4.1569,-4.1272,-4.127,-4.1267,0,-4.0908,-4.1002,-4.1097,-4.1117,-4.1147,-4.1192,-4.1206,-4.1231,-4.1265,-4.1306,-4.1328,-4.1378,-4.1405,-4.1444,-4.1428,-4.1372,-4.1539,-4.1459,-4.1538,-4.1538,-4.1575,-4.1573,-4.1813,-4.1594,-4.1594,-4.1593,-4.1593,0,-4.1094,-4.1182,-4.1165,-4.1224,-4.132,-4.1297,-4.1392,-4.14,-4.1423,-4.1481,-4.144,-4.1495,-4.1471,-4.1525,-4.1514,-4.1604,-4.1617,-4.1616,-4.1612,-4.162,-4.162,-4.1638,-4.1627,-4.16,-4.1598,-4.1597,-4.1596,0,-4.1278,-4.1271,-4.1372,-4.1391,-4.1398,-4.1468,-4.1484,-4.1539,-4.1537,-4.1611,-4.1628,-4.1624,-4.1685,-4.1674,-4.1741,-4.1733,-4.1846,-4.1829,-4.1837,-4.1833,-4.1912,-4.1905,-4.2173,-4.2207,-4.1966,-4.1968,-4.197,0,-4.1398,-4.1464,-4.149,-4.1527,-4.1545,-4.1604,-4.1639,-4.1618,-4.1655,-4.1693,-4.1743,-4.1801,-4.1846,-4.1946,-4.1949,-4.2,-4.1983,-4.2073,-4.199,-4.1996,-4.1984,-4.1981,-4.1987,-4.209,-4.2093,-4.2095,-4.2097,0,-4.161,-4.1603,-4.1654,-4.1705,-4.1747,-4.1786,-4.182,-4.1852,-4.1834,-4.1878,-4.194,-4.1975,-4.2044,-4.2102,-4.2149,-4.2162,-4.2127,-4.2123,-4.2144,-4.2153,-4.2155,-4.2155,-4.1882,-4.2117,-4.2115,-4.2113,-4.2112,-4.2111,-4.1765,-4.1821,-4.1849,-4.1908,-4.1931,-4.1964,-4.2017,-4.2021,-4.2073,-4.2128,-4.2112,-4.2183,-4.221,-4.227,-4.2289,-4.2343,-4.2309,-4.234,-4.2347,-4.2355,-4.2365,-4.2146,-4.2351,-4.2351,-4.235,-4.235,-4.2349,0,-4.1975,-4.199,-4.2045,-4.2094,-4.214,-4.2103,-4.2139,-4.218,-4.2243,-4.2271,-4.2316,-4.2388,-4.2443,-4.2451,-4.2503,-4.2545,-4.253,-4.2559,-4.2556,-4.256,-4.2392,-4.2369,-4.2571,-4.2571,-4.2571,-4.257,-4.257,-4.257,-4.209,-4.2183,-4.2179,-4.2284,-4.2297,-4.2368,-4.2391,-4.2421,-4.2443,-4.2525,-4.2572,-4.2576,-4.2596,-4.2649,-4.2698,-4.2698,-4.2719,-4.2755,-4.275,-4.2593,-4.2571,-4.255,-4.2528,-4.276,-4.276,-4.2912,-4.2914,-4.2915]}]]